User: anonymous   Login
Location: Oshawa
(43.9000°N, 78.8670°W)
Time: 05:42:43
(UTC-04:00)
Language:

Envisat - Orbit

View from above orbital plane
View from above orbital plane
View from above satellite
View from above satellite

Ground track
Ground track

The orbit data is extracted from the following two-line orbital elements,

1 27386U 02009A   15089.72785602  .00000090  00000-0  44124-4 0  9995
2 27386 098.3427 152.4757 0000972 081.9443 278.1852 14.37798971684758
Epoch (UTC): 30 March 2015 17:28:06
Eccentricity: 0.0000972
inclination: 98.3427°
perigee height: 765 km
apogee height: 766 km
right ascension of ascending node: 152.4757°
argument of perigee: 81.9443°
revolutions per day: 14.37798971
mean anomaly at epoch: 278.1852°
orbit number at epoch: 68475

The dashed part of the orbit path shows where the satellite is in the earth's shadow,  

DLR